Hourly Weather Hanoi

Today, 14 July, Tuesday

Time Temperature Precipitation Wind Pressure Humidity
00:00 +30°C° 0.4 mm 2 mps 754 mmHg 82%
01:00 +30°C° 0 mm 2 mps 754 mmHg 83%
02:00 +30°C° 0.4 mm 2 mps 754 mmHg 84%
03:00 +29°C° 0.4 mm 2 mps 754 mmHg 85%
04:00 +29°C° 0.4 mm 1 mps 753 mmHg 87%
05:00 +30°C° 0.1 mm 1 mps 754 mmHg 84%
06:00 +30°C° 0.1 mm 1 mps 754 mmHg 81%
07:00 +31°C° 0 mm 1 mps 754 mmHg 78%
08:00 +32°C° 0 mm 1 mps 754 mmHg 71%
09:00 +34°C° 0 mm 1 mps 755 mmHg 64%
10:00 +36°C° 0 mm 2 mps 755 mmHg 57%
11:00 +37°C° 0 mm 2 mps 754 mmHg 54%
12:00 +38°C° 0 mm 2 mps 753 mmHg 50%
13:00 +39°C° 0 mm 2 mps 753 mmHg 45%
14:00 +39°C° 0 mm 2 mps 752 mmHg 44%
15:00 +40°C° 0 mm 2 mps 752 mmHg 42%
16:00 +40°C° 0 mm 2 mps 751 mmHg 41%
17:00 +38°C° 0 mm 3 mps 751 mmHg 48%
18:00 +36°C° 0 mm 4 mps 751 mmHg 56%
19:00 +35°C° 0 mm 4 mps 752 mmHg 62%
20:00 +34°C° 0.1 mm 4 mps 752 mmHg 66%
21:00 +33°C° 0.1 mm 3 mps 753 mmHg 71%
22:00 +31°C° 0.1 mm 3 mps 753 mmHg 75%
23:00 +31°C° 0 mm 3 mps 753 mmHg 77%

Tomorrow, 15 July, Wednesday

Time Temperature Precipitation Wind Pressure Humidity
00:00 +30°C° 0 mm 2 mps 753 mmHg 79%
01:00 +30°C° 0 mm 2 mps 753 mmHg 81%
02:00 +30°C° 0 mm 2 mps 753 mmHg 82%
03:00 +30°C° 0 mm 2 mps 752 mmHg 84%
04:00 +30°C° 0 mm 2 mps 752 mmHg 85%
05:00 +30°C° 0 mm 2 mps 752 mmHg 83%
06:00 +31°C° 0 mm 2 mps 753 mmHg 80%
07:00 +31°C° 0 mm 2 mps 753 mmHg 77%
08:00 +34°C° 0 mm 2 mps 753 mmHg 70%
09:00 +35°C° 0 mm 2 mps 753 mmHg 62%
10:00 +37°C° 0 mm 2 mps 753 mmHg 54%
11:00 +38°C° 0 mm 3 mps 752 mmHg 51%
12:00 +39°C° 0 mm 3 mps 752 mmHg 48%
13:00 +40°C° 0 mm 3 mps 751 mmHg 45%
14:00 +41°C° 0 mm 4 mps 750 mmHg 45%
15:00 +41°C° 0 mm 4 mps 750 mmHg 45%
16:00 +41°C° 0 mm 5 mps 749 mmHg 45%
17:00 +39°C° 0 mm 5 mps 749 mmHg 52%
18:00 +36°C° 0 mm 5 mps 749 mmHg 60%
19:00 +34°C° 0 mm 5 mps 749 mmHg 67%
20:00 +33°C° 0 mm 5 mps 750 mmHg 70%
21:00 +33°C° 0 mm 4 mps 751 mmHg 73%
22:00 +32°C° 0 mm 4 mps 751 mmHg 77%
23:00 +32°C° 0.2 mm 4 mps 751 mmHg 78%

Day after tomorrow, 16 July, Thursday

Time Temperature Precipitation Wind Pressure Humidity
00:00 +31°C° 0.2 mm 3 mps 751 mmHg 79%
01:00 +31°C° 0.2 mm 3 mps 751 mmHg 80%
02:00 +31°C° 0.2 mm 3 mps 751 mmHg 80%
03:00 +30°C° 0.2 mm 3 mps 751 mmHg 81%
04:00 +30°C° 0.2 mm 2 mps 751 mmHg 82%
05:00 +30°C° 0.7 mm 2 mps 751 mmHg 81%
06:00 +31°C° 0.7 mm 2 mps 751 mmHg 81%
07:00 +31°C° 0.7 mm 2 mps 752 mmHg 81%
08:00 +34°C° 0 mm 2 mps 752 mmHg 73%
09:00 +35°C° 0 mm 2 mps 752 mmHg 66%
10:00 +37°C° 0 mm 2 mps 751 mmHg 59%
11:00 +38°C° 0 mm 3 mps 751 mmHg 53%
12:00 +39°C° 0 mm 3 mps 750 mmHg 47%
13:00 +42°C° 0 mm 4 mps 749 mmHg 42%
14:00 +41°C° 0 mm 4 mps 749 mmHg 43%
15:00 +41°C° 0 mm 5 mps 748 mmHg 44%
16:00 +41°C° 0 mm 5 mps 747 mmHg 45%
17:00 +39°C° 0 mm 5 mps 748 mmHg 51%
18:00 +36°C° 0 mm 5 mps 748 mmHg 57%
19:00 +34°C° 0 mm 5 mps 749 mmHg 63%
20:00 +34°C° 0 mm 5 mps 749 mmHg 67%
21:00 +33°C° 0 mm 5 mps 750 mmHg 70%
22:00 +33°C° 0 mm 4 mps 751 mmHg 74%
23:00 +33°C° 0.1 mm 4 mps 751 mmHg 76%

17 July, Friday

Time Temperature Precipitation Wind Pressure Humidity
00:00 +32°C° 0.1 mm 4 mps 750 mmHg 77%
01:00 +31°C° 0.1 mm 3 mps 750 mmHg 78%
02:00 +31°C° 0.2 mm 3 mps 750 mmHg 79%
03:00 +31°C° 0.2 mm 3 mps 750 mmHg 80%
04:00 +31°C° 0.2 mm 2 mps 750 mmHg 80%
05:00 +31°C° 0.1 mm 2 mps 750 mmHg 79%
06:00 +31°C° 0.1 mm 2 mps 750 mmHg 78%
07:00 +31°C° 0.1 mm 2 mps 751 mmHg 77%
08:00 +34°C° 0 mm 2 mps 751 mmHg 71%
09:00 +35°C° 0 mm 2 mps 751 mmHg 65%
10:00 +37°C° 0 mm 2 mps 751 mmHg 59%
11:00 +39°C° 0 mm 3 mps 750 mmHg 52%
12:00 +40°C° 0 mm 3 mps 750 mmHg 46%
13:00 +43°C° 0 mm 3 mps 749 mmHg 39%
14:00 +43°C° 0 mm 4 mps 749 mmHg 39%
15:00 +43°C° 0 mm 4 mps 748 mmHg 39%
16:00 +42°C° 0 mm 5 mps 747 mmHg 39%
17:00 +41°C° 0 mm 5 mps 748 mmHg 44%
18:00 +39°C° 0 mm 5 mps 748 mmHg 49%
19:00 +36°C° 0 mm 5 mps 749 mmHg 54%
20:00 +35°C° 0 mm 5 mps 749 mmHg 59%
21:00 +34°C° 0 mm 5 mps 750 mmHg 64%
22:00 +34°C° 0 mm 5 mps 751 mmHg 68%
23:00 +34°C° 0 mm 5 mps 750 mmHg 68%

18 July, Saturday

Time Temperature Precipitation Wind Pressure Humidity
00:00 +34°C° 0 mm 5 mps 750 mmHg 67%
01:00 +34°C° 0 mm 5 mps 750 mmHg 66%
02:00 +33°C° 0 mm 5 mps 750 mmHg 67%
03:00 +33°C° 0 mm 5 mps 750 mmHg 68%
04:00 +32°C° 0 mm 5 mps 750 mmHg 69%
05:00 +33°C° 0 mm 4 mps 750 mmHg 68%
06:00 +33°C° 0 mm 4 mps 750 mmHg 68%
07:00 +33°C° 0 mm 3 mps 751 mmHg 68%
08:00 +35°C° 0 mm 3 mps 751 mmHg 62%
09:00 +36°C° 0 mm 3 mps 751 mmHg 57%
10:00 +38°C° 0 mm 2 mps 751 mmHg 51%
11:00 +39°C° 0 mm 3 mps 750 mmHg 45%
12:00 +42°C° 0 mm 3 mps 749 mmHg 40%
13:00 +43°C° 0 mm 3 mps 749 mmHg 34%
14:00 +44°C° 0 mm 3 mps 748 mmHg 34%
15:00 +44°C° 0 mm 3 mps 747 mmHg 33%
16:00 +44°C° 0 mm 3 mps 747 mmHg 32%
17:00 +42°C° 0 mm 3 mps 747 mmHg 39%
18:00 +40°C° 0 mm 4 mps 747 mmHg 45%
19:00 +37°C° 0 mm 5 mps 747 mmHg 52%
20:00 +36°C° 0.1 mm 4 mps 748 mmHg 54%
21:00 +36°C° 0.1 mm 4 mps 749 mmHg 56%
22:00 +35°C° 0.1 mm 4 mps 750 mmHg 59%
23:00 +35°C° 0.4 mm 4 mps 749 mmHg 61%

19 July, Sunday

Time Temperature Precipitation Wind Pressure Humidity
00:00 +34°C° 0.4 mm 3 mps 749 mmHg 63%
01:00 +33°C° 0.4 mm 3 mps 749 mmHg 66%
02:00 +32°C° 0 mm 2 mps 749 mmHg 68%
03:00 +31°C° 0 mm 2 mps 749 mmHg 70%
04:00 +31°C° 0 mm 1 mps 748 mmHg 72%
05:00 +31°C° 0 mm 1 mps 749 mmHg 71%
06:00 +32°C° 0 mm 1 mps 749 mmHg 70%
07:00 +32°C° 0 mm 1 mps 749 mmHg 70%
08:00 +34°C° 0 mm 1 mps 749 mmHg 64%
09:00 +35°C° 0 mm 1 mps 749 mmHg 58%
10:00 +37°C° 0 mm 1 mps 749 mmHg 52%
11:00 +39°C° 0.1 mm 2 mps 749 mmHg 48%
12:00 +40°C° 0.1 mm 3 mps 748 mmHg 45%
13:00 +42°C° 0.1 mm 3 mps 748 mmHg 41%
14:00 +40°C° 0.1 mm 3 mps 747 mmHg 42%
15:00 +40°C° 0.1 mm 3 mps 747 mmHg 42%
16:00 +40°C° 0.1 mm 2 mps 747 mmHg 43%
17:00 +38°C° 0.1 mm 2 mps 747 mmHg 50%
18:00 +37°C° 0.1 mm 2 mps 748 mmHg 56%
19:00 +35°C° 0.1 mm 2 mps 748 mmHg 62%
20:00 +34°C° 5 mm 3 mps 749 mmHg 71%
21:00 +31°C° 5 mm 3 mps 749 mmHg 80%
22:00 +29°C° 5 mm 3 mps 750 mmHg 89%
23:00 +29°C° 2.3 mm 3 mps 750 mmHg 89%
Show more